Change the Weather History Date:

Saturday, February 11, 2012

  Actual Average Record
Temperature  
Mean Temperature 14 °F 26 °F  
Max Temperature 22 °F 35 °F 62 °F (1987)
Min Temperature 6 °F 16 °F -17 °F (1936)
Degree Days  
Heating Degree Days 51 39  
Month to date heating degree days 396 446  
Since 1 July heating degree days 3675 4268  
Cooling Degree Days 0 0  
Month to date cooling degree days 0 0  
Year to date cooling degree days 0 0  
Moisture  
Dew Point 2 °F    
Average Humidity 61    
Maximum Humidity 76    
Minimum Humidity 45    
Precipitation  
Precipitation 0.00 in 0.04 in 0.46 in (1999)
Month to date precipitation 0.45 0.38  
Year to date precipitation 0.70 1.28  
Sea Level Pressure  
Sea Level Pressure 30.60 in    
Wind  
Wind Speed 16 mph (WNW)    
Max Wind Speed 24 mph    
Max Gust Speed 32 mph    
Visibility 10 miles    
Events      
T = Trace of Precipitation, MM = Missing Value Source: NWS Daily Summary

Daily Weather History Graph

Daily Weather History Graph

Search for Another Location

Airport or City:

Trip Planner

Search our weather history database for the weather conditions in past years. The results will help you decide how hot, cold, wet, or windy it might be!

Date:

Astronomy

Feb. 11, 2012 Rise Set
Actual Time 7:10 AM CST 5:38 PM CST
Civil Twilight 6:41 AM CST 6:07 PM CST
Nautical Twilight 6:09 AM CST 6:39 PM CST
Astronomical Twilight 5:37 AM CST 7:11 PM CST
Moon 10:30 PM CST (2/11) 8:49 AM CST (2/11)
Length of Visible Light 11h 25m
Length of Day
10h 28m
Waning Gibbous, 82% of the Moon is Illuminated
Feb 11
Waning Gibbous
Feb 14
Last Quarter
Feb 21
New
Feb 29
First Quarter
Mar 8
Full

Hourly Weather History & Observations

Time (CST) Temp. Windchill Dew Point Humidity Pressure Visibility Wind Dir Wind Speed Gust Speed Precip Events Conditions
12:53 AM 10.9 °F -5.9 °F 1.0 °F 64% 30.49 in 10.0 mi NNW 16.1 mph - N/A   Clear
1:53 AM 9.0 °F -7.3 °F -0.0 °F 67% 30.52 in 10.0 mi NNW 13.8 mph - N/A   Clear
2:53 AM 8.1 °F -7.0 °F -0.0 °F 70% 30.53 in 10.0 mi NW 11.5 mph - N/A   Clear
3:53 AM 8.1 °F -7.7 °F -0.0 °F 70% 30.54 in 10.0 mi NW 12.7 mph - N/A   Clear
4:53 AM 7.0 °F -11.0 °F -0.9 °F 70% 30.56 in 10.0 mi NW 16.1 mph - N/A   Clear
5:53 AM 7.0 °F -10.4 °F -2.0 °F 67% 30.58 in 10.0 mi NW 15.0 mph - N/A   Clear
6:53 AM 6.1 °F -10.2 °F -2.9 °F 67% 30.60 in 10.0 mi NW 12.7 mph - N/A   Clear
7:53 AM 7.0 °F -11.0 °F -2.0 °F 67% 30.63 in 10.0 mi NW 16.1 mph - N/A   Clear
8:53 AM 9.0 °F -9.0 °F -2.0 °F 61% 30.65 in 10.0 mi NW 17.3 mph - N/A   Clear
9:53 AM 12.0 °F -4.5 °F -0.0 °F 59% 30.67 in 10.0 mi NW 16.1 mph - N/A   Clear
10:53 AM 15.1 °F -1.6 °F 1.0 °F 54% 30.69 in 10.0 mi NNW 18.4 mph 26.5 mph N/A   Clear
11:53 AM 17.1 °F -0.3 °F 3.0 °F 54% 30.68 in 10.0 mi NW 21.9 mph 26.5 mph N/A   Clear
12:53 PM 18.0 °F 2.2 °F 3.0 °F 52% 30.66 in 10.0 mi WNW 18.4 mph 27.6 mph N/A   Clear
1:53 PM 19.9 °F 4.8 °F 3.9 °F 50% 30.63 in 10.0 mi NW 18.4 mph 26.5 mph N/A   Clear
2:53 PM 21.0 °F 6.2 °F 3.9 °F 48% 30.63 in 10.0 mi WNW 18.4 mph 25.3 mph N/A   Clear
3:53 PM 21.0 °F 6.6 °F 3.9 °F 48% 30.62 in 10.0 mi WNW 17.3 mph - N/A   Clear
4:53 PM 19.9 °F 6.2 °F 6.1 °F 55% 30.61 in 10.0 mi West 15.0 mph - N/A   Clear
5:53 PM 17.1 °F 2.5 °F 3.9 °F 56% 30.61 in 10.0 mi West 15.0 mph - N/A   Clear
6:53 PM 15.1 °F -0.1 °F 3.9 °F 61% 30.61 in 10.0 mi West 15.0 mph 24.2 mph N/A   Clear
7:53 PM 14.0 °F -1.4 °F 3.9 °F 64% 30.60 in 10.0 mi West 15.0 mph - N/A   Clear
8:53 PM 12.9 °F -2.8 °F 3.0 °F 65% 30.61 in 10.0 mi West 15.0 mph - N/A   Clear
9:53 PM 12.9 °F -2.2 °F 3.0 °F 65% 30.61 in 10.0 mi WNW 13.8 mph - N/A   Clear
10:53 PM 12.0 °F -3.4 °F 3.0 °F 67% 30.60 in 10.0 mi West 13.8 mph - N/A   Clear
11:53 PM 10.9 °F -4.1 °F 1.9 °F 67% 30.58 in 10.0 mi WNW 12.7 mph - N/A   Clear